Time,TemperatureF,DewpointF,PressureIn,WindDirection,WindDirectionDegrees,WindSpeedMPH,WindSpeedGustMPH,Humidity,HourlyPrecipIn,Conditions,Clouds,dailyrainin,SoftwareType,DateUTC
2013-04-19 00:01:00,55.6,36.2,30.08,NNE,21,7.0,16.0,48,0.00,,SKC,0.22,VWS V14.01,2013-04-19 05:01:00,
2013-04-19 00:06:00,55.6,36.2,30.08,East,90,6.0,12.0,48,0.00,,SKC,0.00,VWS V14.01,2013-04-19 05:06:00,
2013-04-19 00:11:00,55.6,36.2,30.08,North,5,13.0,16.0,48,0.00,,SKC,0.00,VWS V14.01,2013-04-19 05:11:00,
2013-04-19 00:16:00,55.5,36.2,30.09,NE,40,6.0,16.0,48,0.00,,SKC,0.00,VWS V14.01,2013-04-19 05:16:00,
2013-04-19 00:21:00,55.4,36.1,30.10,NNE,13,1.0,16.0,48,0.00,,SKC,0.00,VWS V14.01,2013-04-19 05:21:00,
2013-04-19 00:26:00,55.3,36.0,30.11,ENE,67,0.0,16.0,48,0.00,,SKC,0.00,VWS V14.01,2013-04-19 05:26:00,
2013-04-19 00:30:00,55.1,36.3,30.11,ENE,66,5.0,16.0,49,0.00,,SKC,0.00,VWS V14.01,2013-04-19 05:30:00,
2013-04-19 00:31:00,55.2,36.4,30.11,North,355,3.0,16.0,49,0.00,,SKC,0.00,VWS V14.01,2013-04-19 05:31:00,
2013-04-19 00:36:00,55.1,36.3,30.12,ENE,63,7.0,9.0,49,0.00,,SKC,0.00,VWS V14.01,2013-04-19 05:36:00,
2013-04-19 00:41:00,55.0,36.2,30.13,NNE,30,6.0,11.0,49,0.00,,SKC,0.00,VWS V14.01,2013-04-19 05:41:00,
2013-04-19 00:46:00,54.9,36.1,30.13,NNE,13,1.0,11.0,49,0.00,,SKC,0.00,VWS V14.01,2013-04-19 05:46:00,
2013-04-19 00:51:00,54.8,36.5,30.14,NE,40,1.0,11.0,50,0.00,,SKC,0.00,VWS V14.01,2013-04-19 05:51:00,
2013-04-19 00:56:00,54.6,36.3,30.14,ENE,61,0.0,11.0,50,0.00,,SKC,0.00,VWS V14.01,2013-04-19 05:56:00,
2013-04-19 01:00:00,54.4,36.2,30.15,NNE,24,0.0,11.0,50,0.00,,SKC,0.00,VWS V14.01,2013-04-19 06:00:00,
2013-04-19 01:01:00,54.5,36.3,30.15,NNE,30,3.0,11.0,50,0.00,,SKC,0.00,VWS V14.01,2013-04-19 06:01:00,
2013-04-19 01:06:00,54.3,36.6,30.15,NNE,32,0.0,7.0,51,0.00,,SKC,0.00,VWS V14.01,2013-04-19 06:06:00,
2013-04-19 01:11:00,54.2,36.5,30.16,NNE,27,0.0,10.0,51,0.00,,SKC,0.00,VWS V14.01,2013-04-19 06:11:00,
2013-04-19 01:16:00,54.1,36.4,30.17,NE,40,1.0,10.0,51,0.00,,SKC,0.00,VWS V14.01,2013-04-19 06:16:00,
2013-04-19 01:21:00,54.0,36.3,30.17,NNE,19,3.0,13.0,51,0.00,,SKC,0.00,VWS V14.01,2013-04-19 06:21:00,
2013-04-19 01:26:00,53.9,36.2,30.18,North,9,5.0,13.0,51,0.00,,SKC,0.00,VWS V14.01,2013-04-19 06:26:00,
2013-04-19 01:31:00,53.8,36.1,30.18,NNE,14,2.0,13.0,51,0.00,,SKC,0.00,VWS V14.01,2013-04-19 06:31:00,
2013-04-19 01:36:00,53.6,36.4,30.18,NNE,26,2.0,9.0,52,0.00,,SKC,0.00,VWS V14.01,2013-04-19 06:36:00,
2013-04-19 01:41:00,53.4,36.2,30.19,NNE,25,0.0,9.0,52,0.00,,SKC,0.00,VWS V14.01,2013-04-19 06:41:00,
2013-04-19 01:46:00,53.2,36.5,30.19,NNE,25,0.0,9.0,53,0.00,,SKC,0.00,VWS V14.01,2013-04-19 06:46:00,
2013-04-19 01:51:00,53.1,36.4,30.19,NE,36,0.0,9.0,53,0.00,,SKC,0.00,VWS V14.01,2013-04-19 06:51:00,
2013-04-19 01:56:00,52.9,36.2,30.20,NNE,19,3.0,11.0,53,0.00,,SKC,0.00,VWS V14.01,2013-04-19 06:56:00,
2013-04-19 02:01:00,52.7,36.5,30.20,NE,51,2.0,11.0,54,0.00,,SKC,0.00,VWS V14.01,2013-04-19 07:01:00,
2013-04-19 02:06:00,52.6,36.5,30.20,NE,47,0.0,5.0,54,0.00,,SKC,0.00,VWS V14.01,2013-04-19 07:06:00,
2013-04-19 02:11:00,52.4,36.3,30.20,North,5,3.0,7.0,54,0.00,,SKC,0.00,VWS V14.01,2013-04-19 07:11:00,
2013-04-19 02:16:00,52.2,36.5,30.20,North,11,0.0,7.0,55,0.00,,SKC,0.00,VWS V14.01,2013-04-19 07:16:00,
2013-04-19 02:21:00,52.0,36.3,30.20,North,11,3.0,7.0,55,0.00,,SKC,0.00,VWS V14.01,2013-04-19 07:21:00,
2013-04-19 02:26:00,51.7,36.5,30.20,NNE,15,1.0,7.0,56,0.00,,SKC,0.00,VWS V14.01,2013-04-19 07:26:00,
2013-04-19 02:31:00,51.5,36.3,30.21,NNE,15,0.0,7.0,56,0.00,,SKC,0.00,VWS V14.01,2013-04-19 07:31:00,
2013-04-19 02:36:00,51.3,36.6,30.21,NNE,15,0.0,3.0,57,0.00,,SKC,0.00,VWS V14.01,2013-04-19 07:36:00,
2013-04-19 02:41:00,51.0,36.3,30.22,NNE,15,0.0,3.0,57,0.00,,SKC,0.00,VWS V14.01,2013-04-19 07:41:00,
2013-04-19 02:46:00,50.8,36.1,30.22,NNE,15,0.0,3.0,57,0.00,,SKC,0.00,VWS V14.01,2013-04-19 07:46:00,
2013-04-19 02:51:00,50.6,36.4,30.22,NNE,15,0.0,3.0,58,0.00,,SKC,0.00,VWS V14.01,2013-04-19 07:51:00,
2013-04-19 02:56:00,50.4,36.2,30.22,NNE,15,0.0,3.0,58,0.00,,SKC,0.00,VWS V14.01,2013-04-19 07:56:00,
2013-04-19 03:01:00,50.2,36.4,30.23,NNE,15,0.0,3.0,59,0.00,,SKC,0.00,VWS V14.01,2013-04-19 08:01:00,
2013-04-19 03:06:00,49.9,36.6,30.23,NNE,15,0.0,0.0,60,0.00,,SKC,0.00,VWS V14.01,2013-04-19 08:06:00,
2013-04-19 03:11:00,49.7,36.4,30.23,NNE,15,0.0,0.0,60,0.00,,SKC,0.00,VWS V14.01,2013-04-19 08:11:00,
2013-04-19 03:16:00,49.5,36.6,30.23,NNE,15,0.0,0.0,61,0.00,,SKC,0.00,VWS V14.01,2013-04-19 08:16:00,
2013-04-19 03:21:00,49.2,36.8,30.23,NNE,15,0.0,0.0,62,0.00,,SKC,0.00,VWS V14.01,2013-04-19 08:21:00,
2013-04-19 03:26:00,49.0,36.6,30.23,NNE,15,0.0,0.0,62,0.00,,SKC,0.00,VWS V14.01,2013-04-19 08:26:00,
2013-04-19 03:31:00,48.8,36.4,30.23,NNE,15,0.0,0.0,62,0.00,,SKC,0.00,VWS V14.01,2013-04-19 08:31:00,
2013-04-19 03:36:00,48.5,36.5,30.24,NNE,15,0.0,0.0,63,0.00,,SKC,0.00,VWS V14.01,2013-04-19 08:36:00,
2013-04-19 03:41:00,48.2,36.6,30.24,NNE,15,0.0,0.0,64,0.00,,SKC,0.00,VWS V14.01,2013-04-19 08:41:00,
2013-04-19 03:46:00,48.0,36.4,30.24,NNE,15,0.0,0.0,64,0.00,,SKC,0.00,VWS V14.01,2013-04-19 08:46:00,
2013-04-19 03:51:00,47.8,36.6,30.24,NNE,15,0.0,0.0,65,0.00,,SKC,0.00,VWS V14.01,2013-04-19 08:51:00,
2013-04-19 03:56:00,47.6,36.4,30.24,NNE,15,0.0,0.0,65,0.00,,SKC,0.00,VWS V14.01,2013-04-19 08:56:00,
2013-04-19 04:01:00,47.3,36.5,30.24,NNE,15,0.0,1.0,66,0.00,,SKC,0.00,VWS V14.01,2013-04-19 09:01:00,
2013-04-19 04:06:00,47.0,36.2,30.24,NNE,15,2.0,2.0,66,0.00,,SKC,0.00,VWS V14.01,2013-04-19 09:06:00,
2013-04-19 04:11:00,46.8,36.0,30.24,NNE,15,0.0,3.0,66,0.00,,SKC,0.00,VWS V14.01,2013-04-19 09:11:00,
2013-04-19 04:16:00,46.7,36.3,30.24,NNE,15,0.0,3.0,67,0.00,,SKC,0.00,VWS V14.01,2013-04-19 09:16:00,
2013-04-19 04:21:00,46.5,36.5,30.24,NNE,15,0.0,3.0,68,0.00,,SKC,0.00,VWS V14.01,2013-04-19 09:21:00,
2013-04-19 04:26:00,46.3,36.3,30.24,NNE,15,0.0,3.0,68,0.00,,SKC,0.00,VWS V14.01,2013-04-19 09:26:00,
2013-04-19 04:31:00,46.2,36.6,30.24,NNE,15,0.0,3.0,69,0.00,,SKC,0.00,VWS V14.01,2013-04-19 09:31:00,
2013-04-19 04:36:00,46.0,36.4,30.24,NNE,14,1.0,5.0,69,0.00,,SKC,0.00,VWS V14.01,2013-04-19 09:36:00,
2013-04-19 04:41:00,46.0,36.0,30.24,North,360,0.0,6.0,68,0.00,,SKC,0.00,VWS V14.01,2013-04-19 09:41:00,
2013-04-19 04:46:00,46.0,35.7,30.24,NNE,17,5.0,8.0,67,0.00,,SKC,0.00,VWS V14.01,2013-04-19 09:46:00,
2013-04-19 04:51:00,46.1,35.8,30.24,NNE,21,1.0,8.0,67,0.00,,SKC,0.00,VWS V14.01,2013-04-19 09:51:00,
2013-04-19 04:56:00,46.2,35.5,30.24,NNE,18,0.0,8.0,66,0.00,,SKC,0.00,VWS V14.01,2013-04-19 09:56:00,
2013-04-19 05:01:00,46.2,35.5,30.24,North,9,3.0,8.0,66,0.00,,SKC,0.00,VWS V14.01,2013-04-19 10:01:00,
2013-04-19 05:06:00,46.2,35.9,30.24,North,9,3.0,4.0,67,0.00,,SKC,0.00,VWS V14.01,2013-04-19 10:06:00,
2013-04-19 05:11:00,46.0,35.7,30.24,North,5,3.0,5.0,67,0.00,,SKC,0.00,VWS V14.01,2013-04-19 10:11:00,
2013-04-19 05:16:00,45.9,35.6,30.24,NNW,343,2.0,6.0,67,0.00,,SKC,0.00,VWS V14.01,2013-04-19 10:16:00,
2013-04-19 05:21:00,45.7,35.8,30.24,North,355,1.0,6.0,68,0.00,,SKC,0.00,VWS V14.01,2013-04-19 10:21:00,
2013-04-19 05:26:00,45.5,35.6,30.24,North,351,6.0,6.0,68,0.00,,SKC,0.00,VWS V14.01,2013-04-19 10:26:00,
2013-04-19 05:31:00,45.4,35.5,30.24,NNW,347,3.0,8.0,68,0.00,,SKC,0.00,VWS V14.01,2013-04-19 10:31:00,
2013-04-19 05:36:00,45.2,35.3,30.24,North,355,1.0,7.0,68,0.00,,SKC,0.00,VWS V14.01,2013-04-19 10:36:00,
2013-04-19 05:41:00,45.1,35.5,30.24,North,9,3.0,8.0,69,0.00,,SKC,0.00,VWS V14.01,2013-04-19 10:41:00,
2013-04-19 05:46:00,45.1,35.5,30.24,North,360,6.0,9.0,69,0.00,,SKC,0.00,VWS V14.01,2013-04-19 10:46:00,
2013-04-19 05:51:00,45.1,35.5,30.24,NNW,339,4.0,9.0,69,0.00,,SKC,0.00,VWS V14.01,2013-04-19 10:51:00,
2013-04-19 05:56:00,45.2,35.3,30.23,NNW,340,5.0,9.0,68,0.00,,SKC,0.00,VWS V14.01,2013-04-19 10:56:00,
2013-04-19 06:01:00,45.3,35.4,30.24,North,355,1.0,11.0,68,0.00,,SKC,0.00,VWS V14.01,2013-04-19 11:01:00,
2013-04-19 06:06:00,45.3,35.4,30.24,North,351,3.0,15.0,68,0.00,,SKC,0.00,VWS V14.01,2013-04-19 11:06:00,
2013-04-19 06:11:00,45.4,35.5,30.24,NNW,329,4.0,15.0,68,0.00,,SKC,0.00,VWS V14.01,2013-04-19 11:11:00,
2013-04-19 06:16:00,45.3,35.0,30.24,NW,319,6.0,15.0,67,0.00,,SKC,0.00,VWS V14.01,2013-04-19 11:16:00,
2013-04-19 06:21:00,45.4,35.1,30.24,NE,40,2.0,15.0,67,0.00,,SKC,0.00,VWS V14.01,2013-04-19 11:21:00,
2013-04-19 06:26:00,45.4,34.7,30.24,North,5,8.0,15.0,66,0.00,,SKC,0.00,VWS V14.01,2013-04-19 11:26:00,
2013-04-19 06:31:00,45.4,34.3,30.24,NNE,28,2.0,15.0,65,0.00,,SKC,0.00,VWS V14.01,2013-04-19 11:31:00,
2013-04-19 06:36:00,45.5,34.4,30.24,NNW,329,4.0,12.0,65,0.00,,SKC,0.00,VWS V14.01,2013-04-19 11:36:00,
2013-04-19 06:41:00,45.6,34.1,30.24,NNW,341,8.0,16.0,64,0.00,,SKC,0.00,VWS V14.01,2013-04-19 11:41:00,
2013-04-19 06:46:00,45.7,34.2,30.23,North,5,4.0,16.0,64,0.00,,SKC,0.00,VWS V14.01,2013-04-19 11:46:00,
2013-04-19 06:51:00,45.8,33.9,30.24,NNW,348,5.0,16.0,63,0.00,,SKC,0.00,VWS V14.01,2013-04-19 11:51:00,
2013-04-19 06:56:00,45.8,33.9,30.24,NNW,329,4.0,16.0,63,0.00,,SKC,0.00,VWS V14.01,2013-04-19 11:56:00,
2013-04-19 07:01:00,45.8,33.5,30.24,NW,323,5.0,16.0,62,0.00,,SKC,0.00,VWS V14.01,2013-04-19 12:01:00,
2013-04-19 07:06:00,45.8,33.9,30.24,North,355,7.0,9.0,63,0.00,,SKC,0.00,VWS V14.01,2013-04-19 12:06:00,
2013-04-19 07:11:00,45.7,33.4,30.25,NNE,23,6.0,11.0,62,0.00,,SKC,0.00,VWS V14.01,2013-04-19 12:11:00,
2013-04-19 07:16:00,45.7,33.4,30.25,NNW,341,4.0,11.0,62,0.00,,SKC,0.00,VWS V14.01,2013-04-19 12:16:00,
2013-04-19 07:20:00,45.8,33.5,30.26,NNW,344,4.0,11.0,62,0.00,,SKC,0.00,VWS V14.01,2013-04-19 12:20:00,
2013-04-19 07:25:00,45.8,33.1,30.27,North,355,9.0,11.0,61,0.00,,SKC,0.00,VWS V14.01,2013-04-19 12:25:00,
2013-04-19 07:30:00,45.9,32.8,30.27,North,349,0.0,11.0,60,0.00,,SKC,0.00,VWS V14.01,2013-04-19 12:30:00,
2013-04-19 07:35:00,46.0,32.9,30.27,NNE,19,2.0,11.0,60,0.00,,SKC,0.00,VWS V14.01,2013-04-19 12:35:00,
2013-04-19 07:40:00,46.2,32.7,30.27,NNE,22,6.0,11.0,59,0.00,,SKC,0.00,VWS V14.01,2013-04-19 12:40:00,
2013-04-19 07:45:00,46.5,32.5,30.27,North,355,6.0,11.0,58,0.00,,SKC,0.00,VWS V14.01,2013-04-19 12:45:00,
2013-04-19 07:50:00,46.7,32.7,30.27,NW,321,2.0,11.0,58,0.00,,SKC,0.00,VWS V14.01,2013-04-19 12:50:00,
2013-04-19 07:55:00,47.0,32.1,30.28,NNE,15,7.0,11.0,56,0.00,,SKC,0.00,VWS V14.01,2013-04-19 12:55:00,
2013-04-19 08:00:00,47.4,32.1,30.28,North,355,5.0,11.0,55,0.00,,SKC,0.00,VWS V14.01,2013-04-19 13:00:00,
2013-04-19 08:05:00,47.8,32.0,30.28,North,10,11.0,11.0,54,0.00,,SKC,0.00,VWS V14.01,2013-04-19 13:05:00,
2013-04-19 08:10:00,48.3,31.0,30.28,NNE,22,9.0,13.0,51,0.00,,SKC,0.00,VWS V14.01,2013-04-19 13:10:00,
2013-04-19 08:15:00,48.8,31.0,30.28,North,355,5.0,19.0,50,0.00,,SKC,0.00,VWS V14.01,2013-04-19 13:15:00,
2013-04-19 08:20:00,49.2,30.9,30.29,North,360,12.0,19.0,49,0.00,,SKC,0.00,VWS V14.01,2013-04-19 13:20:00,
2013-04-19 08:25:00,49.5,30.6,30.29,North,11,10.0,19.0,48,0.00,,SKC,0.00,VWS V14.01,2013-04-19 13:25:00,
2013-04-19 08:30:00,49.8,30.4,30.29,NNE,18,15.0,19.0,47,0.00,,SKC,0.00,VWS V14.01,2013-04-19 13:30:00,
2013-04-19 08:35:00,50.1,30.7,30.29,North,5,11.0,17.0,47,0.00,,SKC,0.00,VWS V14.01,2013-04-19 13:35:00,
2013-04-19 08:40:00,50.5,30.5,30.29,North,360,5.0,17.0,46,0.00,,SKC,0.00,VWS V14.01,2013-04-19 13:40:00,
2013-04-19 08:45:00,50.7,29.6,30.29,North,355,7.0,20.0,44,0.00,,SKC,0.00,VWS V14.01,2013-04-19 13:45:00,
2013-04-19 08:50:00,51.0,29.9,30.29,NNW,344,11.0,20.0,44,0.00,,SKC,0.00,VWS V14.01,2013-04-19 13:50:00,
2013-04-19 08:55:00,51.4,29.7,30.29,North,360,4.0,20.0,43,0.00,,SKC,0.00,VWS V14.01,2013-04-19 13:55:00,
2013-04-19 09:00:00,51.7,28.8,30.29,North,355,13.0,21.0,41,0.00,,SKC,0.00,VWS V14.01,2013-04-19 14:00:00,
2013-04-19 09:05:00,52.0,28.5,30.29,North,5,7.0,19.0,40,0.00,,SKC,0.00,VWS V14.01,2013-04-19 14:05:00,
2013-04-19 09:10:00,52.3,28.7,30.30,North,355,13.0,19.0,40,0.00,,SKC,0.00,VWS V14.01,2013-04-19 14:10:00,
2013-04-19 09:15:00,52.8,28.5,30.29,NNW,348,11.0,19.0,39,0.00,,SKC,0.00,VWS V14.01,2013-04-19 14:15:00,
2013-04-19 09:20:00,53.2,27.0,30.30,North,360,10.0,23.0,36,0.00,,SKC,0.00,VWS V14.01,2013-04-19 14:20:00,
2013-04-19 09:25:00,53.5,27.9,30.30,NW,319,5.0,23.0,37,0.00,,SKC,0.00,VWS V14.01,2013-04-19 14:25:00,
2013-04-19 09:30:00,54.0,28.3,30.30,NW,315,7.0,23.0,37,0.00,,SKC,0.00,VWS V14.01,2013-04-19 14:30:00,
2013-04-19 09:35:00,54.4,28.0,30.30,NNW,333,5.0,21.0,36,0.00,,SKC,0.00,VWS V14.01,2013-04-19 14:35:00,
2013-04-19 09:40:00,55.0,27.9,30.30,NNW,327,10.0,21.0,35,0.00,,SKC,0.00,VWS V14.01,2013-04-19 14:40:00,
2013-04-19 09:45:00,55.5,26.9,30.31,NNW,331,11.0,21.0,33,0.00,,SKC,0.00,VWS V14.01,2013-04-19 14:45:00,
2013-04-19 09:50:00,55.7,25.5,30.30,NNE,26,14.0,21.0,31,0.00,,SKC,0.00,VWS V14.01,2013-04-19 14:50:00,
2013-04-19 09:55:00,55.9,24.9,30.30,NNE,27,16.0,22.0,30,0.00,,SKC,0.00,VWS V14.01,2013-04-19 14:55:00,
2013-04-19 10:00:00,56.2,25.2,30.31,North,5,7.0,22.0,30,0.00,,SKC,0.00,VWS V14.01,2013-04-19 15:00:00,
2013-04-19 10:05:00,56.7,24.8,30.30,NNW,342,16.0,19.0,29,0.00,,SKC,0.00,VWS V14.01,2013-04-19 15:05:00,
2013-04-19 10:10:00,56.9,25.0,30.31,NNE,16,9.0,23.0,29,0.00,,SKC,0.00,VWS V14.01,2013-04-19 15:10:00,
2013-04-19 10:15:00,57.3,24.5,30.31,NNW,344,14.0,23.0,28,0.00,,SKC,0.00,VWS V14.01,2013-04-19 15:15:00,
2013-04-19 10:20:00,57.6,24.8,30.32,North,5,12.0,23.0,28,0.00,,SKC,0.00,VWS V14.01,2013-04-19 15:20:00,
2013-04-19 10:25:00,57.8,24.1,30.32,NNE,30,11.0,23.0,27,0.00,,SKC,0.00,VWS V14.01,2013-04-19 15:25:00,
2013-04-19 10:30:00,58.1,24.3,30.32,North,5,22.0,23.0,27,0.00,,SKC,0.00,VWS V14.01,2013-04-19 15:30:00,
2013-04-19 10:35:00,58.2,24.4,30.32,North,5,10.0,20.0,27,0.00,,SKC,0.00,VWS V14.01,2013-04-19 15:35:00,
2013-04-19 10:40:00,58.4,23.7,30.32,NW,315,10.0,22.0,26,0.00,,SKC,0.00,VWS V14.01,2013-04-19 15:40:00,
2013-04-19 10:45:00,58.6,23.8,30.33,North,360,13.0,25.0,26,0.00,,SKC,0.00,VWS V14.01,2013-04-19 15:45:00,
2013-04-19 10:50:00,58.9,24.1,30.33,NNE,12,6.0,26.0,26,0.00,,SKC,0.00,VWS V14.01,2013-04-19 15:50:00,
2013-04-19 10:55:00,59.3,25.4,30.33,NNE,17,6.0,26.0,27,0.00,,SKC,0.00,VWS V14.01,2013-04-19 15:55:00,
2013-04-19 11:00:00,59.8,24.9,30.33,North,355,14.0,26.0,26,0.00,,SKC,0.00,VWS V14.01,2013-04-19 16:00:00,
2013-04-19 11:05:00,60.3,25.3,30.33,NNW,329,10.0,20.0,26,0.00,,SKC,0.00,VWS V14.01,2013-04-19 16:05:00,
2013-04-19 11:10:00,60.7,26.5,30.33,NNE,33,4.0,20.0,27,0.00,,SKC,0.00,VWS V14.01,2013-04-19 16:10:00,
2013-04-19 11:15:00,61.1,25.0,30.33,North,11,7.0,21.0,25,0.00,,SKC,0.00,VWS V14.01,2013-04-19 16:15:00,
2013-04-19 11:20:00,61.1,26.9,30.33,North,5,7.0,21.0,27,0.00,,SKC,0.00,VWS V14.01,2013-04-19 16:20:00,
2013-04-19 11:25:00,61.5,28.1,30.33,North,355,13.0,21.0,28,0.00,,SKC,0.00,VWS V14.01,2013-04-19 16:25:00,
2013-04-19 11:30:00,61.9,27.6,30.33,NE,34,11.0,21.0,27,0.00,,SKC,0.00,VWS V14.01,2013-04-19 16:30:00,
2013-04-19 11:35:00,62.0,26.8,30.33,North,360,7.0,20.0,26,0.00,,SKC,0.00,VWS V14.01,2013-04-19 16:35:00,
2013-04-19 11:40:00,61.9,26.7,30.33,WNW,297,5.0,20.0,26,0.00,,SKC,0.00,VWS V14.01,2013-04-19 16:40:00,
2013-04-19 11:45:00,62.3,27.9,30.33,NW,325,3.0,20.0,27,0.00,,SKC,0.00,VWS V14.01,2013-04-19 16:45:00,
2013-04-19 11:50:00,62.7,28.3,30.33,NW,313,5.0,20.0,27,0.00,,SKC,0.00,VWS V14.01,2013-04-19 16:50:00,
2013-04-19 11:55:00,62.9,27.5,30.33,WNW,298,10.0,20.0,26,0.00,,SKC,0.00,VWS V14.01,2013-04-19 16:55:00,
2013-04-19 12:00:00,62.9,28.4,30.33,North,9,6.0,20.0,27,0.00,,SKC,0.00,VWS V14.01,2013-04-19 17:00:00,
2013-04-19 12:05:00,63.2,27.8,30.33,North,355,4.0,14.0,26,0.00,,SKC,0.00,VWS V14.01,2013-04-19 17:05:00,
2013-04-19 12:10:00,63.1,28.6,30.33,North,360,6.0,17.0,27,0.00,,SKC,0.00,VWS V14.01,2013-04-19 17:10:00,
2013-04-19 12:15:00,63.1,27.7,30.33,NNE,22,4.0,21.0,26,0.00,,SKC,0.00,VWS V14.01,2013-04-19 17:15:00,
2013-04-19 12:20:00,63.3,28.8,30.33,NE,55,6.0,21.0,27,0.00,,SKC,0.00,VWS V14.01,2013-04-19 17:20:00,
2013-04-19 12:25:00,63.6,28.1,30.32,NNE,21,14.0,21.0,26,0.00,,SKC,0.00,VWS V14.01,2013-04-19 17:25:00,
2013-04-19 12:30:00,63.8,28.3,30.33,North,5,7.0,21.0,26,0.00,,SKC,0.00,VWS V14.01,2013-04-19 17:30:00,
2013-04-19 12:35:00,63.8,28.3,30.32,NE,34,4.0,16.0,26,0.00,,SKC,0.00,VWS V14.01,2013-04-19 17:35:00,
2013-04-19 12:40:00,64.1,29.5,30.32,North,355,6.0,16.0,27,0.00,,SKC,0.00,VWS V14.01,2013-04-19 17:40:00,
2013-04-19 12:45:00,64.5,29.8,30.32,NW,313,11.0,19.0,27,0.00,,SKC,0.00,VWS V14.01,2013-04-19 17:45:00,
2013-04-19 12:50:00,64.8,29.1,30.31,NNW,333,7.0,19.0,26,0.00,,SKC,0.00,VWS V14.01,2013-04-19 17:50:00,
2013-04-19 12:55:00,65.1,29.4,30.31,North,360,6.0,19.0,26,0.00,,SKC,0.00,VWS V14.01,2013-04-19 17:55:00,
2013-04-19 13:00:00,65.0,30.2,30.31,NNW,344,9.0,20.0,27,0.00,,SKC,0.00,VWS V14.01,2013-04-19 18:00:00,
2013-04-19 13:05:00,65.2,30.4,30.31,NNE,28,10.0,13.0,27,0.00,,SKC,0.00,VWS V14.01,2013-04-19 18:05:00,
2013-04-19 13:10:00,65.2,28.5,30.31,ENE,59,8.0,19.0,25,0.00,,SKC,0.00,VWS V14.01,2013-04-19 18:10:00,
2013-04-19 13:15:00,65.2,30.4,30.30,NW,326,9.0,19.0,27,0.00,,SKC,0.00,VWS V14.01,2013-04-19 18:15:00,
2013-04-19 13:20:00,65.4,30.6,30.30,NNE,30,6.0,19.0,27,0.00,,SKC,0.00,VWS V14.01,2013-04-19 18:20:00,
2013-04-19 13:25:00,65.9,30.1,30.30,NNW,340,5.0,19.0,26,0.00,,SKC,0.00,VWS V14.01,2013-04-19 18:25:00,
2013-04-19 13:30:00,66.2,30.3,30.30,WNW,297,12.0,19.0,26,0.00,,SKC,0.00,VWS V14.01,2013-04-19 18:30:00,
2013-04-19 13:35:00,66.1,30.2,30.30,NNW,346,10.0,15.0,26,0.00,,SKC,0.00,VWS V14.01,2013-04-19 18:35:00,
2013-04-19 13:40:00,66.3,30.4,30.29,NW,310,12.0,15.0,26,0.00,,SKC,0.00,VWS V14.01,2013-04-19 18:40:00,
2013-04-19 13:45:00,66.6,30.7,30.29,North,355,9.0,15.0,26,0.00,,SKC,0.00,VWS V14.01,2013-04-19 18:45:00,
2013-04-19 13:50:00,66.8,29.9,30.29,NNE,13,16.0,18.0,25,0.00,,SKC,0.00,VWS V14.01,2013-04-19 18:50:00,
2013-04-19 13:55:00,66.8,30.8,30.28,NNE,12,7.0,18.0,26,0.00,,SKC,0.00,VWS V14.01,2013-04-19 18:55:00,
2013-04-19 14:00:00,67.2,29.2,30.28,NE,42,4.0,18.0,24,0.00,,SKC,0.00,VWS V14.01,2013-04-19 19:00:00,
2013-04-19 14:05:00,67.2,30.2,30.28,NNW,330,10.0,15.0,25,0.00,,SKC,0.00,VWS V14.01,2013-04-19 19:05:00,
2013-04-19 14:10:00,67.1,30.1,30.28,North,360,5.0,15.0,25,0.00,,SKC,0.00,VWS V14.01,2013-04-19 19:10:00,
2013-04-19 14:15:00,67.4,30.4,30.28,North,350,9.0,15.0,25,0.00,,SKC,0.00,VWS V14.01,2013-04-19 19:15:00,
2013-04-19 14:20:00,67.8,30.7,30.28,ENE,65,6.0,15.0,25,0.00,,SKC,0.00,VWS V14.01,2013-04-19 19:20:00,
2013-04-19 14:25:00,67.9,29.8,30.27,NNE,13,6.0,15.0,24,0.00,,SKC,0.00,VWS V14.01,2013-04-19 19:25:00,
2013-04-19 14:30:00,67.9,31.8,30.27,NNW,327,6.0,15.0,26,0.00,,SKC,0.00,VWS V14.01,2013-04-19 19:30:00,
2013-04-19 14:35:00,68.0,31.9,30.27,NNW,327,20.0,20.0,26,0.00,,SKC,0.00,VWS V14.01,2013-04-19 19:35:00,
2013-04-19 14:40:00,67.8,29.7,30.27,North,350,2.0,20.0,24,0.00,,SKC,0.00,VWS V14.01,2013-04-19 19:40:00,
2013-04-19 14:45:00,68.2,30.1,30.27,NW,323,2.0,20.0,24,0.00,,SKC,0.00,VWS V14.01,2013-04-19 19:45:00,
2013-04-19 14:50:00,68.5,29.3,30.26,NW,310,5.0,20.0,23,0.00,,SKC,0.00,VWS V14.01,2013-04-19 19:50:00,
2013-04-19 14:55:00,68.5,29.3,30.26,NW,322,2.0,20.0,23,0.00,,SKC,0.00,VWS V14.01,2013-04-19 19:55:00,
2013-04-19 15:00:00,68.6,30.4,30.25,NE,38,5.0,20.0,24,0.00,,SKC,0.00,VWS V14.01,2013-04-19 20:00:00,
2013-04-19 15:05:00,68.8,29.5,30.26,NE,36,4.0,12.0,23,0.00,,SKC,0.00,VWS V14.01,2013-04-19 20:05:00,
2013-04-19 15:10:00,68.6,29.4,30.25,North,355,1.0,12.0,23,0.00,,SKC,0.00,VWS V14.01,2013-04-19 20:10:00,
2013-04-19 15:15:00,68.6,30.4,30.25,North,5,1.0,12.0,24,0.00,,SKC,0.00,VWS V14.01,2013-04-19 20:15:00,
2013-04-19 15:20:00,68.9,29.6,30.25,West,277,1.0,12.0,23,0.00,,SKC,0.00,VWS V14.01,2013-04-19 20:20:00,
2013-04-19 15:25:00,69.2,29.9,30.25,North,360,3.0,12.0,23,0.00,,SKC,0.00,VWS V14.01,2013-04-19 20:25:00,
2013-04-19 15:30:00,69.4,30.0,30.24,North,5,9.0,13.0,23,0.00,,SKC,0.00,VWS V14.01,2013-04-19 20:30:00,
2013-04-19 15:35:00,69.3,28.9,30.24,NNW,335,4.0,15.0,22,0.00,,SKC,0.00,VWS V14.01,2013-04-19 20:35:00,
2013-04-19 15:40:00,69.2,28.8,30.24,WNW,286,4.0,15.0,22,0.00,,SKC,0.00,VWS V14.01,2013-04-19 20:40:00,
2013-04-19 15:45:00,69.1,28.7,30.24,North,5,10.0,15.0,22,0.00,,SKC,0.00,VWS V14.01,2013-04-19 20:45:00,
2013-04-19 15:50:00,69.0,29.7,30.23,NNE,26,0.0,15.0,23,0.00,,SKC,0.00,VWS V14.01,2013-04-19 20:50:00,
2013-04-19 15:55:00,69.3,29.9,30.23,North,5,9.0,15.0,23,0.00,,SKC,0.00,VWS V14.01,2013-04-19 20:55:00,
2013-04-19 16:00:00,69.9,29.4,30.22,North,10,4.0,15.0,22,0.00,,SKC,0.00,VWS V14.01,2013-04-19 21:00:00,
2013-04-19 16:05:00,70.1,28.4,30.22,WNW,284,1.0,12.0,21,0.00,,SKC,0.00,VWS V14.01,2013-04-19 21:05:00,
2013-04-19 16:10:00,69.9,27.0,30.21,NNW,332,0.0,12.0,20,0.00,,SKC,0.00,VWS V14.01,2013-04-19 21:10:00,
2013-04-19 16:15:00,69.9,27.0,30.21,NNW,331,6.0,15.0,20,0.00,,SKC,0.00,VWS V14.01,2013-04-19 21:15:00,
2013-04-19 16:20:00,69.8,30.4,30.21,NNW,337,6.0,15.0,23,0.00,,SKC,0.00,VWS V14.01,2013-04-19 21:20:00,
2013-04-19 16:25:00,70.1,29.5,30.21,North,351,1.0,15.0,22,0.00,,SKC,0.00,VWS V14.01,2013-04-19 21:25:00,
2013-04-19 16:30:00,70.5,27.5,30.21,NW,323,7.0,15.0,20,0.00,,SKC,0.00,VWS V14.01,2013-04-19 21:30:00,
2013-04-19 16:35:00,70.4,28.6,30.21,North,360,10.0,12.0,21,0.00,,SKC,0.00,VWS V14.01,2013-04-19 21:35:00,
2013-04-19 16:40:00,70.4,28.6,30.21,NE,43,0.0,12.0,21,0.00,,SKC,0.00,VWS V14.01,2013-04-19 21:40:00,
2013-04-19 16:45:00,70.5,27.5,30.20,NNE,18,0.0,12.0,20,0.00,,SKC,0.00,VWS V14.01,2013-04-19 21:45:00,
2013-04-19 16:50:00,70.6,26.4,30.19,NW,326,2.0,12.0,19,0.00,,SKC,0.00,VWS V14.01,2013-04-19 21:50:00,
2013-04-19 16:55:00,70.4,28.6,30.20,North,355,7.0,12.0,21,0.00,,SKC,0.00,VWS V14.01,2013-04-19 21:55:00,
2013-04-19 17:00:00,70.1,27.2,30.20,NW,315,1.0,12.0,20,0.00,,SKC,0.00,VWS V14.01,2013-04-19 22:00:00,
2013-04-19 17:05:00,70.1,29.5,30.19,North,355,6.0,9.0,22,0.00,,SKC,0.00,VWS V14.01,2013-04-19 22:05:00,
2013-04-19 17:10:00,70.3,28.5,30.19,North,355,2.0,9.0,21,0.00,,SKC,0.00,VWS V14.01,2013-04-19 22:10:00,
2013-04-19 17:15:00,70.4,28.6,30.19,NNE,15,2.0,10.0,21,0.00,,SKC,0.00,VWS V14.01,2013-04-19 22:15:00,
2013-04-19 17:20:00,70.4,28.6,30.19,North,360,0.0,10.0,21,0.00,,SKC,0.00,VWS V14.01,2013-04-19 22:20:00,
2013-04-19 17:25:00,70.6,28.8,30.19,NNE,28,6.0,11.0,21,0.00,,SKC,0.00,VWS V14.01,2013-04-19 22:25:00,
2013-04-19 17:30:00,70.6,28.8,30.19,NNW,330,2.0,13.0,21,0.00,,SKC,0.00,VWS V14.01,2013-04-19 22:30:00,
2013-04-19 17:35:00,70.5,27.5,30.19,NNW,330,4.0,9.0,20,0.00,,SKC,0.00,VWS V14.01,2013-04-19 22:35:00,
2013-04-19 17:40:00,70.3,27.4,30.19,NNW,336,1.0,9.0,20,0.00,,SKC,0.00,VWS V14.01,2013-04-19 22:40:00,
2013-04-19 17:45:00,70.4,28.6,30.19,North,5,7.0,9.0,21,0.00,,SKC,0.00,VWS V14.01,2013-04-19 22:45:00,
2013-04-19 17:50:00,70.4,27.5,30.18,North,5,9.0,14.0,20,0.00,,SKC,0.00,VWS V14.01,2013-04-19 22:50:00,
2013-04-19 17:55:00,70.3,28.5,30.19,NNW,327,3.0,14.0,21,0.00,,SKC,0.00,VWS V14.01,2013-04-19 22:55:00,
2013-04-19 18:00:00,70.4,28.6,30.19,West,281,2.0,14.0,21,0.00,,SKC,0.00,VWS V14.01,2013-04-19 23:00:00,
2013-04-19 18:05:00,70.6,27.6,30.19,NW,326,5.0,14.0,20,0.00,,SKC,0.00,VWS V14.01,2013-04-19 23:05:00,
2013-04-19 18:10:00,70.3,28.5,30.18,NNW,345,9.0,14.0,21,0.00,,SKC,0.00,VWS V14.01,2013-04-19 23:10:00,
2013-04-19 18:15:00,70.2,28.5,30.18,NW,310,4.0,14.0,21,0.00,,SKC,0.00,VWS V14.01,2013-04-19 23:15:00,
2013-04-19 18:20:00,69.9,28.2,30.18,NNW,329,7.0,14.0,21,0.00,,SKC,0.00,VWS V14.01,2013-04-19 23:20:00,
2013-04-19 18:25:00,69.7,26.9,30.18,NNW,336,6.0,14.0,20,0.00,,SKC,0.00,VWS V14.01,2013-04-19 23:25:00,
2013-04-19 18:30:00,69.6,28.0,30.18,WNW,302,2.0,14.0,21,0.00,,SKC,0.00,VWS V14.01,2013-04-19 23:30:00,
2013-04-19 18:35:00,69.6,28.0,30.18,NW,309,1.0,5.0,21,0.00,,SKC,0.00,VWS V14.01,2013-04-19 23:35:00,
2013-04-19 18:40:00,69.7,28.0,30.18,NW,306,0.0,5.0,21,0.00,,SKC,0.00,VWS V14.01,2013-04-19 23:40:00,
2013-04-19 18:45:00,69.8,28.1,30.18,NW,318,3.0,9.0,21,0.00,,SKC,0.00,VWS V14.01,2013-04-19 23:45:00,
2013-04-19 18:50:00,69.7,28.0,30.18,WNW,301,7.0,9.0,21,0.00,,SKC,0.00,VWS V14.01,2013-04-19 23:50:00,
2013-04-19 18:55:00,69.6,29.1,30.18,WNW,300,0.0,9.0,22,0.00,,SKC,0.00,VWS V14.01,2013-04-19 23:55:00,
2013-04-19 19:00:00,69.4,27.8,30.18,NW,307,0.0,9.0,21,0.00,,SKC,0.00,VWS V14.01,2013-04-20 00:00:00,
2013-04-19 19:05:00,69.2,28.8,30.18,NW,320,0.0,4.0,22,0.00,,SKC,0.00,VWS V14.01,2013-04-20 00:05:00,
2013-04-19 19:10:00,69.0,29.7,30.18,NW,323,0.0,5.0,23,0.00,,SKC,0.00,VWS V14.01,2013-04-20 00:10:00,
2013-04-19 19:15:00,68.8,28.4,30.18,NNW,334,3.0,6.0,22,0.00,,SKC,0.00,VWS V14.01,2013-04-20 00:15:00,
2013-04-19 19:20:00,68.6,28.3,30.18,NNW,334,2.0,6.0,22,0.00,,SKC,0.00,VWS V14.01,2013-04-20 00:20:00,
2013-04-19 19:25:00,68.5,29.3,30.18,NNW,334,0.0,6.0,23,0.00,,SKC,0.00,VWS V14.01,2013-04-20 00:25:00,
2013-04-19 19:30:00,68.4,29.2,30.18,NNW,334,0.0,6.0,23,0.00,,SKC,0.00,VWS V14.01,2013-04-20 00:30:00,
2013-04-19 19:35:00,68.3,30.1,30.18,NNW,334,0.0,1.0,24,0.00,,SKC,0.00,VWS V14.01,2013-04-20 00:35:00,
2013-04-19 19:40:00,68.2,31.1,30.18,NNW,334,0.0,1.0,25,0.00,,SKC,0.00,VWS V14.01,2013-04-20 00:40:00,
2013-04-19 19:45:00,68.0,30.9,30.18,NNW,335,0.0,1.0,25,0.00,,SKC,0.00,VWS V14.01,2013-04-20 00:45:00,
2013-04-19 19:50:00,67.5,29.5,30.18,NNW,334,0.0,2.0,24,0.00,,SKC,0.00,VWS V14.01,2013-04-20 00:50:00,
2013-04-19 19:55:00,67.1,30.1,30.18,NNW,334,0.0,2.0,25,0.00,,SKC,0.00,VWS V14.01,2013-04-20 00:55:00,
2013-04-19 20:00:00,66.7,30.8,30.18,NNW,334,0.0,2.0,26,0.00,,SKC,0.00,VWS V14.01,2013-04-20 01:00:00,
2013-04-19 20:05:00,66.5,31.5,30.19,NNW,334,0.0,0.0,27,0.00,,SKC,0.00,VWS V14.01,2013-04-20 01:05:00,
2013-04-19 20:10:00,66.1,32.1,30.19,NNW,334,0.0,0.0,28,0.00,,SKC,0.00,VWS V14.01,2013-04-20 01:10:00,
2013-04-19 20:15:00,65.6,31.6,30.19,NNW,334,0.0,0.0,28,0.00,,SKC,0.00,VWS V14.01,2013-04-20 01:15:00,
2013-04-19 20:20:00,65.0,32.0,30.19,NNW,334,0.0,0.0,29,0.00,,SKC,0.00,VWS V14.01,2013-04-20 01:20:00,
2013-04-19 20:25:00,64.4,32.3,30.19,NNW,334,0.0,0.0,30,0.00,,SKC,0.00,VWS V14.01,2013-04-20 01:25:00,
2013-04-19 20:30:00,63.8,31.8,30.19,NNW,334,0.0,1.0,30,0.00,,SKC,0.00,VWS V14.01,2013-04-20 01:30:00,
2013-04-19 20:35:00,63.0,32.7,30.20,NNW,335,0.0,0.0,32,0.00,,SKC,0.00,VWS V14.01,2013-04-20 01:35:00,
2013-04-19 20:40:00,62.7,33.2,30.20,NNW,335,0.0,0.0,33,0.00,,SKC,0.00,VWS V14.01,2013-04-20 01:40:00,
2013-04-19 20:45:00,62.3,33.6,30.20,NNW,335,0.0,0.0,34,0.00,,SKC,0.00,VWS V14.01,2013-04-20 01:45:00,
2013-04-19 20:50:00,62.0,33.3,30.20,NNW,334,0.0,0.0,34,0.00,,SKC,0.00,VWS V14.01,2013-04-20 01:50:00,
2013-04-19 20:55:00,61.5,33.6,30.20,NNW,334,0.0,0.0,35,0.00,,SKC,0.00,VWS V14.01,2013-04-20 01:55:00,
2013-04-19 21:00:00,61.1,34.0,30.21,NNW,335,0.0,0.0,36,0.00,,SKC,0.00,VWS V14.01,2013-04-20 02:00:00,
2013-04-19 21:05:00,60.7,33.6,30.21,NNW,335,0.0,0.0,36,0.00,,SKC,0.00,VWS V14.01,2013-04-20 02:05:00,
2013-04-19 21:10:00,60.2,33.8,30.21,NNW,335,0.0,0.0,37,0.00,,SKC,0.00,VWS V14.01,2013-04-20 02:10:00,
2013-04-19 21:15:00,59.8,34.2,30.21,NNW,335,0.0,0.0,38,0.00,,SKC,0.00,VWS V14.01,2013-04-20 02:15:00,
2013-04-19 21:20:00,59.4,33.1,30.21,NNW,335,0.0,0.0,37,0.00,,SKC,0.00,VWS V14.01,2013-04-20 02:20:00,
2013-04-19 21:25:00,59.0,33.5,30.22,NNW,335,0.0,1.0,38,0.00,,SKC,0.00,VWS V14.01,2013-04-20 02:25:00,
2013-04-19 21:30:00,58.6,33.7,30.22,NNW,335,0.0,1.0,39,0.00,,SKC,0.00,VWS V14.01,2013-04-20 02:30:00,
2013-04-19 21:35:00,58.3,33.5,30.22,NNW,335,0.0,0.0,39,0.00,,SKC,0.00,VWS V14.01,2013-04-20 02:35:00,
2013-04-19 21:40:00,58.0,33.2,30.22,NNW,335,0.0,0.0,39,0.00,,SKC,0.00,VWS V14.01,2013-04-20 02:40:00,
2013-04-19 21:45:00,57.7,32.9,30.22,NNW,335,0.0,0.0,39,0.00,,SKC,0.00,VWS V14.01,2013-04-20 02:45:00,
2013-04-19 21:50:00,57.3,33.2,30.22,NNW,335,0.0,0.0,40,0.00,,SKC,0.00,VWS V14.01,2013-04-20 02:50:00,
2013-04-19 21:55:00,57.0,33.5,30.22,NNW,335,0.0,0.0,41,0.00,,SKC,0.00,VWS V14.01,2013-04-20 02:55:00,
2013-04-19 21:59:00,56.7,33.3,30.22,NNW,335,0.0,0.0,41,0.00,,SKC,0.00,VWS V14.01,2013-04-20 02:59:00,
2013-04-19 22:04:00,56.4,33.0,30.22,NNW,335,0.0,0.0,41,0.00,,SKC,0.00,VWS V14.01,2013-04-20 03:04:00,
2013-04-19 22:09:00,56.2,32.8,30.23,NNW,335,0.0,1.0,41,0.00,,SKC,0.00,VWS V14.01,2013-04-20 03:09:00,
2013-04-19 22:14:00,55.9,32.6,30.23,NNW,335,0.0,1.0,41,0.00,,SKC,0.00,VWS V14.01,2013-04-20 03:14:00,
2013-04-19 22:19:00,55.8,33.1,30.23,NNW,335,0.0,1.0,42,0.00,,SKC,0.00,VWS V14.01,2013-04-20 03:19:00,
2013-04-19 22:24:00,55.6,33.5,30.23,NNW,335,0.0,1.0,43,0.00,,SKC,0.00,VWS V14.01,2013-04-20 03:24:00,
2013-04-19 22:29:00,55.4,33.3,30.24,NNW,335,0.0,1.0,43,0.00,,SKC,0.00,VWS V14.01,2013-04-20 03:29:00,
2013-04-19 22:34:00,55.2,33.1,30.24,NNW,334,0.0,1.0,43,0.00,,SKC,0.00,VWS V14.01,2013-04-20 03:34:00,
2013-04-19 22:39:00,55.0,32.9,30.24,NNW,335,0.0,1.0,43,0.00,,SKC,0.00,VWS V14.01,2013-04-20 03:39:00,
2013-04-19 22:44:00,54.8,32.8,30.24,NNW,335,0.0,1.0,43,0.00,,SKC,0.00,VWS V14.01,2013-04-20 03:44:00,
2013-04-19 22:49:00,54.7,32.7,30.24,NNW,335,0.0,1.0,43,0.00,,SKC,0.00,VWS V14.01,2013-04-20 03:49:00,
2013-04-19 22:54:00,54.6,33.1,30.24,NNW,335,0.0,1.0,44,0.00,,SKC,0.00,VWS V14.01,2013-04-20 03:54:00,
2013-04-19 22:59:00,54.4,33.0,30.25,NNW,335,0.0,1.0,44,0.00,,SKC,0.00,VWS V14.01,2013-04-20 03:59:00,
2013-04-19 23:01:00,54.4,33.0,30.25,NNW,335,0.0,1.0,44,0.00,,SKC,0.00,VWS V14.01,2013-04-20 04:01:00,
2013-04-19 23:06:00,54.2,32.8,30.25,NNW,335,0.0,0.0,44,0.00,,SKC,0.00,VWS V14.01,2013-04-20 04:06:00,
2013-04-19 23:11:00,54.0,32.6,30.25,NNW,335,0.0,0.0,44,0.00,,SKC,0.00,VWS V14.01,2013-04-20 04:11:00,
2013-04-19 23:16:00,53.8,33.0,30.25,NNW,335,0.0,0.0,45,0.00,,SKC,0.00,VWS V14.01,2013-04-20 04:16:00,
2013-04-19 23:21:00,53.5,33.2,30.25,NNW,335,0.0,0.0,46,0.00,,SKC,0.00,VWS V14.01,2013-04-20 04:21:00,
2013-04-19 23:26:00,53.2,33.0,30.25,NNW,334,0.0,1.0,46,0.00,,SKC,0.00,VWS V14.01,2013-04-20 04:26:00,
2013-04-19 23:31:00,52.9,33.2,30.25,NNW,335,0.0,3.0,47,0.00,,SKC,0.00,VWS V14.01,2013-04-20 04:31:00,
2013-04-19 23:36:00,52.7,33.0,30.24,NNW,335,0.0,0.0,47,0.00,,SKC,0.00,VWS V14.01,2013-04-20 04:36:00,
2013-04-19 23:41:00,52.6,32.4,30.24,NNW,335,0.0,1.0,46,0.00,,SKC,0.00,VWS V14.01,2013-04-20 04:41:00,
2013-04-19 23:46:00,52.6,33.0,30.24,NNW,335,0.0,1.0,47,0.00,,SKC,0.00,VWS V14.01,2013-04-20 04:46:00,
2013-04-19 23:51:00,52.4,32.8,30.25,NNW,335,0.0,1.0,47,0.00,,SKC,0.00,VWS V14.01,2013-04-20 04:51:00,
2013-04-19 23:56:00,52.3,33.2,30.24,NNW,335,0.0,1.0,48,0.00,,SKC,0.00,VWS V14.01,2013-04-20 04:56:00,